{"data":{"norad_id":55799,"epoch":"2026-09-20T05:19:36.384096Z","epoch_age_seconds":45956,"freshness":"FRESH","line1":"1 55799U 23029D   26263.22194889  .00000034  00000+0  51299-4 0  9999","line2":"2 55799  87.9142 255.4879 0002759  97.0394 263.1053 13.20772262173691","mean_motion":13.20772262,"eccentricity":0.0002759,"inclination_deg":87.9142,"raan_deg":255.4879,"arg_perigee_deg":97.0394,"mean_anomaly_deg":263.1053,"bstar":5.1299e-5,"rev_number":17369,"period_min":109.02712310292,"perigee_km":1179.6858803381,"apogee_km":1183.8574379362,"semimajor_km":7559.9086591371,"source":"CELESTRAK","updated_at":"2026-09-20T09:00:44.759368Z"}}